Regional Weather Roundup
Issued by NWS Bismarck, ND

Home | Current Version | Previous Version | Text Only | Print | Product List | Glossary On
Versions: 1 2 3 4 5 6 7 8 9 10 11 12 13 14 15 16 17 18 19 20 21 22 23 24 25 26 27 28 29 30 31 32 33 34 35 36 37 38 39 40 41 42 43 44 45 46 47 48 49 50
000
ASUS43 KBIS 291202
RWRBIS

NWR BROADCAST TEXT
NATIONAL WEATHER SERVICE BISMARCK ND
700 AM CDT SUN MAY 29 2016

NOTE: "FAIR" INDICATES FEW OR NO CLOUDS BELOW 12,000 FEET WITH NO
SIGNIFICANT WEATHER AND/OR OBSTRUCTIONS TO VISIBILITY.


CITY           SKY/WX    TMP DP  RH WIND       PRES   REMARKS
WILLISTON      CLEAR     45  43  93 CALM      30.00R
MINOT          CLEAR     54  51  90 SW9       29.96R
MINOT AFB      NOT AVBL
BISMARCK       CLEAR     50  50 100 SW3       30.01R
DICKINSON      PTCLDY    47  43  86 W7        30.02R
GARRISON         N/A     49  48  97 W6        29.99R
HETTINGER ARPT FOG       41  40  96 CALM      30.06R VSB<1/4
JAMESTOWN      SUNNY     56  55  97 W8        29.95R FOG
CARRINGTON     CLOUDY    59  57  94 W8        29.98R FOG
HAZEN          FAIR      46  46 100 W3        30.03R FOG
OAKES            N/A    N/A N/A N/A MISG        N/A
STANLEY        FAIR      50  50 100 W9        30.00S
$$

CITY           SKY/WX    TMP DP  RH WIND       PRES   REMARKS
GRAND FORKS    CLOUDY    59  57  93 NW7       29.91R
GRAND FORKS AF NOT AVBL
DEVILS LAKE    CLOUDY    57  56  96 W5        29.95R FOG
FARGO          PTSUNNY   57  55  93 W6        29.91R FOG
GRAFTON        PTSUNNY   57  57 100 NW5       29.93R
GWINNER        FAIR      55  55 100 W9        29.94R
LANGDON        FOG       55  55 100 W8        29.94R VSB 1
$$

CITY           SKY/WX    TMP DP  RH WIND       PRES   REMARKS
ABERDEEN       SUNNY     57  52  83 W9        29.98R
MOBRIDGE       CLEAR     53  49  86 N7        30.00R
BUFFALO          N/A     50  41  71 W5        30.00R
RAPID CITY     MOCLDY    51  45  79 NW6       30.08R
GLASGOW        CLEAR     44  39  82 S5        30.00R
SIDNEY         CLEAR     44  40  85 S5        30.02R
WOLF POINT     CLEAR     38  36  92 SW3       30.02R
GLENDIVE       CLEAR     45  37  76 CALM      30.06R
MILES CITY     CLEAR     47  41  80 NW5       30.04R
BAKER          CLEAR     41  38  89 CALM      30.06R
$$

CITY           SKY/WX    TMP DP  RH WIND       PRES   REMARKS
BILLINGS       PTCLDY    45  42  89 W5        30.05S
GREAT FALLS    PTCLDY    46  35  65 S9        30.03R
$$




USA.gov is the U.S. government's official web portal to all federal, state and local government web resources and services.